Flag Weather past 2 weeks in Ankara, Turkey

Now
39 °F

Partly cloudy.


Feels Like: 32 °F
Forecast: 35 / 47 °F
Wind: 12 mph from Northeast

Location: Ankara / Esenboga

Current Time: Nov 26, 2014 at 8:42:01 PM

Latest Report: Nov 26, 2014 at 7:50 PM


Visibility: N/A

Pressure: 29.98 "Hg

Humidity: 75%

Dew point: 32 °F

Location of AnkaraLocation

Historic Weather in Ankara — Graph

°F

Ankara temperature yesterday

Maximum temperature yesterday: 41 °F (at 1:20 PM)
Minimum temperature yesterday: 36 °F (at 12:20 AM)
Average temperature yesterday: 37 °F

Past Weeks' High & Low Weather Summary

 TemperatureHumidityPressure
High63 °F (Nov 12, 1:20 PM)100% (Nov 12, 3:50 AM)30.27 "Hg (Nov 12, 3:50 AM)
Low32 °F (Nov 12, 6:20 AM)36% (Nov 14, 2:20 PM)29.86 "Hg (Nov 26, 3:20 AM)
Average44 °F76%30.05 "Hg
* Reported Nov 11 7:20 PM — Nov 26 7:50 PM, Ankara, Weather by CustomWeather, © 2014

Note: Actual official high and low records may vary slightly from our data, if they occured in-between our weather recording intervals... More about our weather records

Advertising

Ankara weather history for previous 24 hours

 ConditionsComfort  
Time TempWeatherWind HumidityBarometerVisibility
7:50 PM
Nov 26
39 °FPartly cloudy.12 mph75%29.98 "HgN/A
7:20 PM41 °FPartly cloudy.12 mph70%29.98 "HgN/A
6:50 PM41 °FPartly cloudy.13 mph70%29.95 "HgN/A
6:20 PM41 °FPartly cloudy.15 mph70%29.95 "HgN/A
5:50 PM41 °FPartly cloudy.12 mph70%29.95 "HgN/A
5:20 PM41 °FPartly cloudy.14 mph70%29.95 "HgN/A
4:50 PM41 °FPartly cloudy.17 mph70%29.92 "HgN/A
4:20 PM43 °FBroken clouds.16 mph66%29.92 "HgN/A
3:50 PM43 °FBroken clouds.20 mph66%29.92 "HgN/A
3:20 PM43 °FBroken clouds.18 mph66%29.89 "HgN/A
2:50 PM43 °FBroken clouds.21 mph66%29.89 "HgN/A
2:20 PM45 °FBroken clouds.21 mph61%29.89 "HgN/A
1:50 PM45 °FBroken clouds.17 mph61%29.89 "HgN/A
1:20 PM45 °FBroken clouds.21 mph61%29.86 "HgN/A
12:50 PM45 °FBroken clouds.18 mph61%29.86 "HgN/A
12:20 PM45 °FBroken clouds.17 mph57%29.86 "HgN/A
11:50 AM45 °FBroken clouds.16 mph61%29.89 "HgN/A
11:20 AM43 °FBroken clouds.13 mph61%29.89 "HgN/A
10:50 AM43 °FBroken clouds.10 mph61%29.89 "HgN/A
10:20 AM41 °FBroken clouds.5 mph66%29.89 "HgN/A
9:50 AM41 °FBroken clouds.7 mph66%29.89 "HgN/A
9:20 AM41 °FBroken clouds.9 mph66%29.89 "HgN/A
8:50 AM39 °FPartly sunny.8 mph65%29.89 "HgN/A
8:20 AM37 °FBroken clouds.8 mph70%29.89 "HgN/A
7:50 AM37 °FBroken clouds.7 mph70%29.89 "HgN/A
7:20 AM37 °FBroken clouds.6 mph70%29.89 "HgN/A
6:50 AM36 °FBroken clouds.5 mph75%29.89 "HgN/A
6:20 AM37 °FPartly cloudy.5 mph70%29.89 "HgN/A
5:50 AM36 °FPartly cloudy.2 mph75%29.89 "HgN/A
5:20 AM36 °FPartly cloudy.3 mph75%29.89 "HgN/A
4:50 AM36 °FPartly cloudy.2 mph75%29.86 "HgN/A
4:20 AM36 °FPartly cloudy.8 mph75%29.86 "HgN/A
3:50 AM34 °FPartly cloudy.5 mph81%29.86 "HgN/A
3:20 AM34 °FPartly cloudy.3 mph81%29.86 "HgN/A
2:50 AM34 °FPartly cloudy.2 mph81%29.89 "HgN/A
2:20 AM36 °FPartly cloudy.6 mph75%29.89 "HgN/A
1:50 AM36 °FPartly cloudy.5 mph75%29.89 "HgN/A
1:20 AM36 °FPartly cloudy.5 mph81%29.89 "HgN/A
12:50 AM36 °FPartly cloudy.7 mph81%29.92 "HgN/A
12:20 AM36 °FPartly cloudy.7 mph81%29.92 "HgN/A
11:50 PM
Nov 25
36 °FPartly cloudy.7 mph81%29.92 "HgN/A
11:20 PM36 °FPartly cloudy.8 mph81%29.92 "HgN/A
10:50 PM36 °FPartly cloudy.9 mph81%29.92 "HgN/A
10:20 PM37 °FPartly cloudy.9 mph75%29.92 "HgN/A
9:50 PM37 °FPartly cloudy.10 mph75%29.92 "HgN/A
9:20 PM37 °FPartly cloudy.13 mph75%29.95 "HgN/A
8:50 PM37 °FPartly cloudy.9 mph75%29.92 "HgN/A
8:20 PM36 °FPartly cloudy.10 mph81%29.95 "HgN/A
Weather by CustomWeather, © 2014

See weather overviewHow to use our weather pages